Simultaneous Nadir Overpasses (SNOs) Predictions

Prediction of SNOs between NOAA-20 and NOAA-19 Satellite Orbit:

Table of predicted SNOs for the next 14.0 days since TLE Epoch: 3/23/2018
Index Date (NOAA-20) Time (NOAA-20) Lat,Lon (NOAA-20) SZA (NOAA-20 ) Date (NOAA-19) Time (NOAA-19) Lat,Lon (NOAA-19) SZA (NOAA-19 ) Distance(km) Time Diff (sec)
1 03/27/2018 14:44:40 80.62, -87.52 80.96 03/27/2018 14:43:42 80.62, -87.41 80.97 1.96 58
2 03/27/2018 15:35:25 -80.63, 79.71 99.05 03/27/2018 15:34:38 -80.61, 79.71 99.04 2.04 47
3 03/27/2018 16:26:10 80.63,-112.93 80.94 03/27/2018 16:25:43 80.62,-112.83 80.93 1.93 27
4 03/27/2018 17:16:55 -80.63, 54.29 99.07 03/27/2018 17:16:39 -80.62, 54.30 99.07 1.94 16
5 03/27/2018 18:07:40 80.63,-138.35 80.91 03/27/2018 18:07:44 80.62,-138.24 80.90 1.90 4
6 03/27/2018 18:58:25 -80.64, 28.88 99.09 03/27/2018 18:58:40 -80.62, 28.88 99.11 1.83 15
7 03/27/2018 19:49:10 80.63,-163.76 80.89 03/27/2018 19:49:45 80.63,-163.66 80.86 1.88 35
8 03/27/2018 20:39:55 -80.64, 3.46 99.11 03/27/2018 20:40:41 -80.62, 3.46 99.15 1.72 46
9 03/27/2018 21:30:40 80.63, 170.82 80.87 03/27/2018 21:31:46 80.63, 170.93 80.82 1.87 66




NCC Satellite Simultaneous Nadir Overpasses (SNOs) Prediction Service
